Weather History for Annette Island, AK

Change the Weather History Date:

Monday, September 16, 2013

  Actual Average Record
Temperature  
Mean Temperature 56 °F 54 °F  
Max Temperature 59 °F 59 °F 73 °F (1995)
Min Temperature 53 °F 48 °F 40 °F (1992)
Degree Days  
Heating Degree Days 9 11  
Month to date heating degree days 73 156  
Since 1 July heating degree days 375 557  
Cooling Degree Days 0    
Month to date cooling degree days 0  
Year to date cooling degree days 22  
Growing Degree Days 6 (Base 50)    
Moisture  
Dew Point 54 °F    
Average Humidity 0    
Maximum Humidity 0    
Minimum Humidity 0    
Precipitation  
Precipitation 0.11 in 0.33 in 2.28 in (2000)
Month to date precipitation 0.71 4.92  
Year to date precipitation 52.31 59.83  
Snow  
Snow 0.00 in 0.00 in 0.00 in (2014)
Month to date snowfall 0.0 0.0  
Since 1 July snowfall 0.0 0.0  
Since 1 September snowfall 0.0 0.0  
Snow Depth 0.00 in    
Sea Level Pressure  
Sea Level Pressure 29.72 in    
Wind  
Wind Speed 6 mph (SE)    
Max Wind Speed 17 mph    
Max Gust Speed 29 mph    
Visibility 10 miles    
Events Rain    
T = Trace of Precipitation, MM = Missing Value Source: NWS Daily Summary

Daily Weather History Graph

Daily Weather History Graph

Search for Another Location

Airport:

Trip Planner

Search our weather history database for the weather conditions in past years. The results will help you decide how hot, cold, wet, or windy it might be!

Date:

Astronomy

Sep. 16, 2013 Rise Set
Actual Time 6:21 AM AKDT 6:59 PM AKDT
Civil Twilight 5:44 AM AKDT 7:35 PM AKDT
Nautical Twilight 5:00 AM AKDT 8:19 PM AKDT
Astronomical Twilight 4:13 AM AKDT 9:06 PM AKDT
Moon 5:29 PM AKDT (9/16) 2:51 AM AKDT (9/16)
Length of Visible Light 13h 51m
Length of Day
12h 38m
Waxing Gibbous, 91% of the Moon is Illuminated
Sep 16
Waxing Gibbous
Sep 19
Full
Sep 26
Last Quarter
Oct 4
New
Oct 11
First Quarter

Hourly Weather History & Observations

Time (AKDT) Temp. Dew Point Humidity Pressure Visibility Wind Dir Wind Speed Gust Speed Precip Events Conditions
12:12 AM 55.4 °F 53.6 °F 94% 29.68 in 7.0 mi South 4.6 mph - 0.00 in Rain Light Rain
12:48 AM 55.4 °F 55.4 °F 100% 29.69 in 7.0 mi South 5.8 mph - 0.03 in Rain Light Rain
12:53 AM 55.9 °F 55.0 °F 97% 29.69 in 7.0 mi South 4.6 mph - 0.04 in Rain Light Rain
1:53 AM 55.0 °F 54.0 °F 96% 29.70 in 10.0 mi Variable 4.6 mph - 0.05 in Rain Light Rain
2:27 AM 55.4 °F 53.6 °F 94% 29.69 in 10.0 mi South 4.6 mph - 0.00 in Rain Light Rain
2:53 AM 55.0 °F 54.0 °F 96% 29.70 in 10.0 mi Variable 5.8 mph - 0.00 in   Overcast
3:53 AM 55.0 °F 54.0 °F 96% 29.70 in 10.0 mi SSE 3.5 mph - 0.02 in Rain Light Rain
4:15 AM 55.4 °F 53.6 °F 94% 29.69 in 10.0 mi Calm Calm - 0.00 in   Overcast
4:53 AM 54.0 °F 53.1 °F 97% 29.70 in 10.0 mi SE 3.5 mph - 0.00 in   Scattered Clouds
5:53 AM 54.0 °F 52.0 °F 93% 29.70 in 10.0 mi Variable 3.5 mph - N/A   Clear
6:51 AM 53.6 °F 53.6 °F 100% 29.70 in 10.0 mi SE 3.5 mph - N/A   Scattered Clouds
6:53 AM 54.0 °F 53.1 °F 97% 29.71 in 10.0 mi SE 3.5 mph - N/A   Scattered Clouds
6:58 AM 53.6 °F 53.6 °F 100% 29.71 in 10.0 mi SE 3.5 mph - N/A   Mostly Cloudy
7:53 AM 55.0 °F 53.1 °F 93% 29.72 in 10.0 mi SE 9.2 mph - N/A   Overcast
8:29 AM 55.4 °F 53.6 °F 94% 29.72 in 10.0 mi ESE 8.1 mph - N/A   Overcast
8:53 AM 55.0 °F 54.0 °F 96% 29.73 in 9.0 mi ESE 9.2 mph - 0.01 in Rain Rain
9:08 AM 55.4 °F 53.6 °F 94% 29.72 in 10.0 mi ESE 5.8 mph - 0.00 in Rain Light Rain
9:16 AM 55.4 °F 53.6 °F 94% 29.72 in 10.0 mi ESE 9.2 mph - 0.00 in Rain Light Rain
9:48 AM 55.4 °F 53.6 °F 94% 29.72 in 10.0 mi SE 10.4 mph - 0.00 in   Overcast
9:51 AM 55.4 °F 53.6 °F 94% 29.72 in 10.0 mi SE 10.4 mph - 0.00 in   Overcast
9:53 AM 55.9 °F 54.0 °F 93% 29.73 in 10.0 mi SE 9.2 mph - 0.00 in   Overcast
10:53 AM 57.0 °F 54.0 °F 89% 29.73 in 10.0 mi SE 13.8 mph 21.9 mph 0.00 in   Overcast
11:53 AM 57.0 °F 53.1 °F 87% 29.73 in 10.0 mi SE 15.0 mph 23.0 mph 0.01 in   Overcast
12:25 PM 57.2 °F 53.6 °F 88% 29.73 in 10.0 mi SE 16.1 mph 23.0 mph 0.00 in   Overcast
12:53 PM 57.9 °F 53.1 °F 84% 29.73 in 10.0 mi SSE 13.8 mph 24.2 mph 0.00 in   Overcast
1:40 PM 59.0 °F 53.6 °F 82% 29.72 in 10.0 mi SSE 15.0 mph 23.0 mph 0.00 in Rain Light Rain
1:53 PM 57.9 °F 54.0 °F 87% 29.72 in 10.0 mi SSE 15.0 mph 25.3 mph 0.00 in Rain Light Rain
2:23 PM 57.2 °F 55.4 °F 94% 29.72 in 10.0 mi SSE 13.8 mph 24.2 mph 0.00 in   Overcast
2:53 PM 57.9 °F 55.0 °F 90% 29.72 in 10.0 mi SSE 9.2 mph 17.3 mph 0.00 in   Overcast
3:18 PM 57.2 °F 53.6 °F 88% 29.72 in 10.0 mi SSE 9.2 mph 17.3 mph N/A   Overcast
3:37 PM 57.2 °F 55.4 °F 94% 29.72 in 10.0 mi SSE 6.9 mph 16.1 mph 0.00 in Rain Light Rain
3:53 PM 57.0 °F 55.0 °F 93% 29.73 in 10.0 mi SSE 8.1 mph - 0.00 in Rain Light Rain
4:30 PM 55.4 °F 55.4 °F 100% 29.73 in 9.0 mi SW 5.8 mph - 0.02 in Rain Light Rain
4:53 PM 55.9 °F 51.1 °F 84% 29.73 in 10.0 mi Calm Calm - 0.03 in Rain Light Rain
5:53 PM 55.9 °F 52.0 °F 87% 29.74 in 10.0 mi SE 4.6 mph - N/A   Overcast
6:53 PM 55.0 °F 52.0 °F 89% 29.74 in 10.0 mi ESE 4.6 mph - 0.00 in Rain Light Rain
7:53 PM 55.0 °F 53.1 °F 93% 29.75 in 10.0 mi ESE 3.5 mph - 0.00 in   Overcast
8:53 PM 54.0 °F 53.1 °F 97% 29.76 in 10.0 mi Calm Calm - 0.00 in Rain Light Rain
9:53 PM 53.1 °F 52.0 °F 96% 29.77 in 10.0 mi Calm Calm - 0.00 in   Mostly Cloudy
10:53 PM 53.1 °F 51.1 °F 93% 29.78 in 10.0 mi SE 5.8 mph - N/A   Clear
11:53 PM 54.0 °F 51.1 °F 90% 29.79 in 10.0 mi SE 6.9 mph - N/A   Clear